This is the latest recevied weather packets stored in our database for station/object IW0HP-3. If no packets are shown the sender has not sent any weather packets the latest 10 day(s).
| Time | Temp. | Humidity | Pressure | Rain* | Wind** | Luminosity | Snow |
|---|---|---|---|---|---|---|---|
| 1788369510 | 30.56° C | 37% | 1015.2 hPa | - | - | - | - |
| 1788368305 | 31.11° C | 36% | 1015.3 hPa | - | - | - | - |
| 1788368123 | 31.11° C | 36% | 1015.2 hPa | - | - | - | - |
| 1788366917 | 31.11° C | 37% | 1015.3 hPa | - | - | - | - |
| 1788365712 | 31.11° C | 40% | 1015.4 hPa | - | - | - | - |
| 1788364507 | 31.67° C | 39% | 1015 hPa | - | - | - | - |
| 1788363301 | 31.67° C | 38% | 1015 hPa | - | - | - | - |
| 1788362096 | 31.67° C | 38% | 1015.1 hPa | - | - | - | - |
| 1788360890 | 31.67° C | 39% | 1015.2 hPa | - | - | - | - |
| 1788359685 | 31.67° C | 41% | 1015.3 hPa | - | - | - | - |
| 1788358480 | 31.67° C | 42% | 1015.3 hPa | - | - | - | - |
| 1788357274 | 31.67° C | 42% | 1015.4 hPa | - | - | - | - |
| 1788356070 | 32.22° C | 40% | 1015.5 hPa | - | - | - | - |
| 1788354865 | 32.22° C | 38% | 1015.8 hPa | - | - | - | - |
| 1788353661 | 32.22° C | 38% | 1015.8 hPa | - | - | - | - |
| 1788352456 | 32.22° C | 28% | 1016.4 hPa | - | - | - | - |
| 1788351252 | 32.22° C | 28% | 1016.6 hPa | - | - | - | - |
| 1788350047 | 31.67° C | 28% | 1016.7 hPa | - | - | - | - |
| 1788348842 | 31.67° C | 29% | 1016.9 hPa | - | - | - | - |
| 1788347638 | 31.67° C | 29% | 1017.1 hPa | - | - | - | - |
| 1788346434 | 31.11° C | 30% | 1017.5 hPa | - | - | - | - |
| 1788345229 | 30.56° C | 31% | 1017.6 hPa | - | - | - | - |
| 1788344025 | 30° C | 34% | 1017.7 hPa | - | - | - | - |
| 1788342820 | 29.44° C | 35% | 1017.7 hPa | - | - | - | - |
| 1788341616 | 28.89° C | 36% | 1017.9 hPa | - | - | - | - |
* Rain since midnight (hover to see other rain measurements)
** Current wind speed in m/s (hover to see current wind gust speed)